1504530000.62,56572,18.13,73542.3,7.09,-25.45,-23.99,0,*77
1504530001.84,56573,18.06,73542.0,7.09,-25.39,-24.11,0,*7A
1504530003.05,56574,18.13,73546.3,7.13,-25.39,-23.95,0,*7D
1504530004.27,56575,18.06,73542.5,7.13,-25.19,-23.49,0,*7F
1504530005.5,56576,18.13,73544.5,7.13,-25.13,-23.23,0,*7A
1504530006.7,56577,18.13,73542.3,7.17,-24.61,-22.67,0,*7A
1504530007.91,56578,18.13,73538.5,7.17,-24.57,-22.53,0,*77
1504530009.14,56579,18.06,73536.0,7.19,-24.61,-22.63,0,*7E
1504530010.37,56580,18.06,73536.0,7.21,-24.77,-22.77,0,*71
1504530011.57,56581,18.06,73538.0,7.21,-24.93,-23.09,0,*72
1504530012.84,56582,18.13,73542.3,7.21,-24.71,-22.47,0,*76
1504530014.04,56583,18.13,73542.3,7.25,-24.61,-22.37,0,*75
1504530015.29,56584,18.06,73538.8,7.27,-25.29,-22.93,0,*73
1504530016.52,56585,18.13,73536.0,7.27,-24.97,-22.63,0,*79
1504530017.78,56586,18.06,73538.8,7.27,-24.71,-22.27,0,*72
1504530019.01,56587,18.06,73538.0,7.25,-24.83,-22.53,0,*7F
1504530020.24,56588,18.13,73540.5,7.25,-24.47,-21.83,0,*76
1504530021.47,56589,18.06,73540.3,7.27,-22.41,-20.05,0,*7A
1504530022.67,56590,18.13,73544.8,7.25,-24.51,-21.63,0,*76
1504530023.95,56591,18.13,73540.8,7.27,-23.99,-20.83,0,*79
1504530025.19,56592,18.13,73540.8,7.25,-23.33,-20.39,0,*79
1504530026.42,56593,18.06,73540.0,7.25,-24.83,-21.93,0,*75
1504530027.65,56594,18.13,73540.5,7.25,-23.89,-20.99,0,*74
1504530028.88,56595,18.13,73540.5,7.25,-23.19,-20.25,0,*7B
1504530030.1,56596,18.13,73536.8,7.25,-22.21,-19.47,0,*7C
1504530031.31,56597,18.06,73538.8,7.25,-21.77,-19.17,0,*78
1504530032.57,56598,18.13,73542.3,7.21,-21.53,-19.31,0,*71
1504530033.81,56599,18.06,73538.5,7.19,-20.83,-18.65,0,*77
1504530035.02,56600,18.06,73540.3,7.21,-19.71,-17.73,0,*70
1504530036.28,56601,18.13,73544.3,7.21,-18.59,-17.07,0,*79
1504530037.51,56602,18.13,73546.0,7.27,-17.69,-16.59,0,*7A
1504530038.74,56603,18.06,73542.5,7.27,-18.07,-16.79,0,*7E
1504530040.0,56604,18.13,73544.5,7.27,-17.97,-16.59,0,*7D
1504530041.2,56605,18.13,73544.8,7.25,-18.11,-16.89,0,*72
1504530042.45,56606,18.13,73542.5,7.27,-17.49,-16.13,0,*72
1504530043.71,56607,18.13,73548.5,7.27,-17.07,-15.71,0,*7E
1504530044.94,56608,18.13,73550.8,7.27,-16.59,-15.29,0,*76
1504530046.17,56609,18.13,73550.8,7.31,-16.97,-15.95,0,*75
1504530047.42,56610,18.13,73542.5,7.31,-19.07,-17.59,0,*79
1504530048.68,56611,18.13,73540.8,7.29,-19.23,-17.25,0,*7C
1504530049.88,56612,18.13,73542.8,7.29,-18.45,-15.99,0,*7B
1504530051.11,56613,18.13,73532.8,7.29,-18.49,-15.85,0,*7B
1504530052.36,56614,18.13,73534.8,7.27,-20.09,-17.93,0,*78
1504530053.64,56615,18.13,73530.0,7.27,-21.53,-19.41,0,*76
1504530054.87,56616,18.13,73528.8,7.21,-18.93,-16.79,0,*71
1504530056.1,56617,18.13,73530.5,7.21,-18.21,-16.13,0,*75
1504530057.34,56618,18.13,73528.0,7.21,-17.25,-15.15,0,*74
1504530058.61,56619,18.06,73532.0,7.19,-18.59,-16.65,0,*7E
1504530059.87,56620,18.13,73538.3,7.21,-17.97,-15.89,0,*73
1504530061.14,56621,18.06,73534.3,7.19,-20.19,-18.31,0,*75
1504530062.4,56622,18.13,73536.5,7.17,-18.31,-16.23,0,*74
1504530063.62,56623,18.13,73536.0,7.15,-17.73,-15.67,0,*7D
1504530064.9,56624,18.13,73538.8,7.15,-17.07,-15.01,0,*79
1504530066.15,56625,18.13,73536.8,7.15,-16.31,-14.11,0,*7C
1504530067.34,56626,18.13,73538.0,7.17,-15.07,-12.93,0,*77
1504530068.57,56627,18.13,73540.0,7.17,-14.61,-12.75,0,*7F
1504530069.8,56628,18.13,73542.5,7.17,-14.61,-12.79,0,*7C
1504530071.09,56629,18.13,73542.0,7.15,-13.97,-12.79,0,*71
1504530072.32,56630,18.13,73542.8,7.17,-13.73,-12.35,0,*79
1504530073.58,56631,18.06,73540.3,7.21,-13.01,-11.63,0,*78
1504530074.84,56632,18.13,73544.3,7.21,-13.01,-11.97,0,*70
1504530076.12,56633,18.06,73544.8,7.19,-14.05,-12.79,0,*7A
1504530077.33,56634,18.06,73542.3,7.21,-14.19,-13.07,0,*73
1504530078.55,56635,18.13,73544.8,7.19,-16.37,-15.63,0,*73
1504530079.78,56636,18.13,73546.3,7.17,-17.25,-16.55,0,*7A
1504530081.06,56637,18.13,73544.8,7.11,-17.25,-16.17,0,*7B
1504530082.32,56638,18.13,73544.8,7.11,-15.29,-14.47,0,*7D
1504530083.56,56639,18.13,73544.3,7.11,-16.93,-15.43,0,*7B
1504530084.79,56640,18.13,73544.0,7.03,-18.11,-16.41,0,*73
1504530086.02,56641,18.13,73542.8,7.03,-15.15,-13.19,0,*73
1504530087.28,56642,18.13,73546.5,6.99,-14.29,-12.57,0,*77
1504530088.53,56643,18.13,73544.5,6.99,-14.19,-12.57,0,*75
1504530089.77,56644,18.13,73542.0,6.95,-14.23,-12.93,0,*7F
1504530090.99,56645,18.13,73540.8,6.93,-12.65,-12.43,0,*71
1504530092.22,56646,18.06,73532.0,6.93,-12.25,-13.37,0,*74
1504530093.44,56647,18.13,73536.0,6.93,-11.97,-13.65,0,*78
1504530094.68,56648,18.13,73532.3,6.93,-12.57,-14.43,0,*7B
1504530095.9,56649,18.13,73536.8,6.93,-12.57,-14.29,0,*76
1504530097.1,56650,18.13,73546.5,6.93,-12.43,-13.55,0,*77
1504530098.35,56651,18.13,73548.8,6.95,-13.79,-15.53,0,*78
1504530099.57,56652,18.13,73550.5,6.93,-14.97,-15.95,0,*70
1504530100.81,56653,18.13,73546.8,6.93,-17.07,-17.35,0,*73
1504530102.01,56654,18.13,73540.8,6.89,-16.37,-16.79,0,*74
1504530103.22,56655,18.13,73532.3,6.89,-14.89,-14.61,0,*79
1504530104.47,56656,18.13,73530.8,6.87,-14.01,-13.65,0,*77
1504530105.69,56657,18.06,73534.5,6.87,-13.47,-13.47,0,*73
1504530106.91,56658,18.13,73542.5,6.87,-13.15,-13.73,0,*7C
1504530108.15,56659,18.13,73542.5,6.87,-12.89,-13.79,0,*73
1504530109.37,56660,18.13,73546.0,6.89,-14.15,-15.11,0,*7C
1504530110.61,56661,18.13,73546.5,6.91,-15.29,-15.29,0,*71
1504530111.86,56662,18.13,73546.5,6.91,-15.67,-15.43,0,*74
1504530113.09,56663,18.13,73544.0,6.89,-18.07,-17.79,0,*7C
1504530114.33,56664,18.13,73542.0,6.89,-19.37,-18.55,0,*78
1504530115.57,56665,18.13,73534.8,6.85,-20.19,-19.65,0,*71
1504530116.82,56666,18.13,73538.5,6.81,-16.89,-16.23,0,*77
1504530118.03,56667,18.13,73542.0,6.83,-15.95,-15.53,0,*7E
1504530119.22,56668,18.13,73548.3,6.83,-16.75,-16.45,0,*78
1504530120.45,56669,18.06,73548.5,6.83,-16.13,-15.99,0,*7B
1504530121.66,56670,18.13,73552.8,6.83,-15.67,-15.11,0,*73
1504530122.9,56671,18.06,73548.0,6.87,-14.75,-13.65,0,*71
1504530124.16,56672,18.13,73550.3,6.87,-14.89,-14.01,0,*74
1504530125.39,56673,18.13,73552.8,6.87,-15.53,-15.15,0,*77
1504530126.61,56674,18.13,73550.8,6.85,-17.69,-16.65,0,*7D
1504530127.83,56675,18.13,73550.8,6.81,-17.73,-15.71,0,*75
1504530129.1,56676,18.13,73544.0,6.81,-16.23,-14.93,0,*7F
1504530130.31,56677,18.13,73538.5,6.75,-15.29,-14.65,0,*75
1504530131.53,56678,18.13,73530.3,6.79,-13.55,-13.01,0,*7E
1504530132.73,56679,18.13,73530.5,6.75,-14.33,-13.65,0,*76
1504530133.95,56680,18.13,73524.5,6.79,-14.43,-14.15,0,*7B
1504530135.2,56681,18.13,73534.0,6.79,-15.89,-15.89,0,*79
1504530136.43,56682,18.13,73530.3,6.75,-15.81,-15.53,0,*79
1504530137.66,56683,18.13,73534.8,6.73,-16.55,-16.83,0,*7A
1504530138.89,56684,18.13,73534.8,6.71,-17.03,-16.75,0,*74
1504530140.09,56685,18.13,73540.0,6.71,-15.25,-14.69,0,*7C
1504530141.35,56686,18.13,73554.5,6.69,-14.83,-14.23,0,*75
1504530142.56,56687,18.13,73554.3,6.67,-14.23,-14.29,0,*7A
1504530143.79,56688,18.13,73550.0,6.69,-14.65,-15.53,0,*75
1504530145.04,56689,18.13,73550.8,6.69,-16.13,-17.49,0,*7E
1504530146.28,56690,18.13,73550.3,6.67,-15.95,-17.07,0,*7F
1504530147.54,56691,18.13,73548.5,6.67,-15.39,-16.13,0,*7C
1504530148.78,56692,18.13,73546.8,6.69,-14.97,-15.07,0,*72
1504530150.01,56693,18.13,73544.0,6.71,-16.45,-16.13,0,*71
1504530151.24,56694,18.13,73536.3,6.71,-15.35,-14.65,0,*71
1504530152.46,56695,18.13,73534.0,6.71,-14.51,-13.47,0,*74
1504530153.69,56696,18.13,73538.8,6.73,-15.15,-14.33,0,*70
1504530154.94,56697,18.13,73538.3,6.73,-15.29,-14.79,0,*70
1504530156.17,56698,18.13,73544.8,6.73,-14.15,-13.93,0,*72
1504530157.4,56699,18.13,73548.3,6.73,-16.79,-16.97,0,*7A
1504530158.64,56700,18.13,73554.3,6.71,-17.79,-17.25,0,*70
1504530159.92,56701,18.13,73546.5,6.69,-18.93,-17.79,0,*7A
1504530161.18,56702,18.13,73542.0,6.67,-17.41,-16.31,0,*7A
1504530162.38,56703,18.13,73544.8,6.63,-15.49,-15.07,0,*73
1504530163.63,56704,18.13,73544.0,6.63,-13.79,-14.05,0,*72
1504530164.83,56705,18.13,73546.5,6.63,-13.55,-14.15,0,*7C
1504530166.06,56706,18.13,73548.3,6.63,-13.01,-13.93,0,*77
1504530167.28,56707,18.13,73546.5,6.63,-14.65,-15.21,0,*7C
1504530168.51,56708,18.13,73544.0,6.63,-16.97,-17.21,0,*7E
1504530169.77,56709,18.13,73546.8,6.61,-14.19,-13.97,0,*70
1504530171.02,56710,18.13,73546.0,6.61,-12.61,-12.25,0,*79
1504530172.28,56711,18.13,73550.8,6.61,-12.93,-12.75,0,*70
1504530173.56,56712,18.13,73550.8,6.61,-12.75,-12.75,0,*7B
1504530174.79,56713,18.13,73550.5,6.61,-12.93,-13.07,0,*76
1504530176.07,56714,18.13,73546.3,6.61,-11.89,-12.07,0,*78
1504530177.3,56715,18.13,73546.8,6.63,-11.63,-12.29,0,*73
1504530178.55,56716,18.13,73554.3,6.63,-12.15,-13.01,0,*79
1504530179.81,56717,18.13,73552.8,6.65,-11.45,-12.15,0,*7C
1504530181.09,56718,18.13,73552.3,6.65,-11.63,-12.35,0,*75
1504530182.3,56719,18.13,73548.3,6.67,-14.23,-14.69,0,*78
1504530183.5,56720,18.13,73548.3,6.67,-14.61,-15.11,0,*7A
1504530184.71,56721,18.13,73550.0,6.71,-14.19,-14.19,0,*7A
1504530185.91,56722,18.13,73548.0,6.71,-14.19,-13.65,0,*75
1504530187.13,56723,18.13,73550.8,6.71,-14.69,-13.83,0,*7B
1504530188.32,56724,18.13,73552.0,6.71,-15.49,-14.11,0,*73
1504530189.57,56725,18.13,73554.8,6.71,-15.21,-13.61,0,*7C
1504530190.77,56726,18.13,73552.5,6.71,-15.49,-12.97,0,*79
1504530192.02,56727,18.13,73550.0,6.71,-14.55,-11.51,0,*7D
1504530193.25,56728,18.13,73550.3,6.71,-12.65,-9.01,0,*4B
1504530194.49,56729,18.13,73554.5,6.73,-11.59,-8.21,0,*47
1504530195.76,56730,18.13,73550.0,6.73,-11.81,-9.41,0,*4D
1504530196.96,56731,18.13,73540.3,6.75,-10.89,-8.85,0,*4A
1504530198.2,56732,18.13,73540.5,6.73,-10.41,-8.89,0,*47
1504530199.44,56733,18.13,73550.3,6.71,-9.83,-8.51,0,*77
1504530200.7,56734,18.13,73546.5,6.73,-7.69,-7.69,0,*7C
1504530201.9,56735,18.13,73546.5,6.71,-9.27,-10.53,0,*44
1504530203.1,56736,18.13,73546.0,6.71,-8.75,-10.93,0,*4D
1504530204.32,56737,18.13,73544.5,6.71,-8.07,-11.01,0,*43
1504530205.57,56738,18.13,73538.3,6.73,-8.97,-12.15,0,*41
1504530206.81,56739,18.13,73542.5,6.71,-9.57,-12.11,0,*4B
1504530208.05,56740,18.13,73546.5,6.73,-10.09,-12.15,0,*70
1504530209.27,56741,18.13,73548.5,6.75,-11.51,-13.47,0,*7D
1504530210.48,56742,18.13,73546.5,6.79,-12.61,-14.33,0,*76
1504530211.72,56743,18.13,73544.0,6.75,-14.51,-15.95,0,*73
1504530212.95,56744,18.13,73548.5,6.75,-14.43,-15.53,0,*7D
1504530214.22,56745,18.13,73554.5,6.75,-14.47,-15.21,0,*7D
1504530215.44,56746,18.13,73552.8,6.75,-16.79,-17.21,0,*73
1504530216.7,56747,18.13,73552.8,6.73,-20.49,-20.63,0,*70
1504530217.93,56748,18.13,73548.8,6.71,-21.23,-21.43,0,*73
1504530219.18,56749,18.13,73548.3,6.65,-19.17,-19.23,0,*76
1504530220.42,56750,18.13,73544.8,6.63,-20.89,-21.23,0,*7E
1504530221.64,56751,18.13,73548.8,6.59,-19.99,-20.15,0,*79
1504530222.9,56752,18.13,73544.5,6.53,-19.23,-19.71,0,*79
1504530224.15,56753,18.13,73540.5,6.53,-21.47,-21.33,0,*7C
1504530225.37,56754,18.13,73542.3,6.49,-21.43,-20.79,0,*7B
1504530226.66,56755,18.13,73542.0,6.47,-20.99,-19.57,0,*74
1504530227.91,56756,18.13,73536.8,6.43,-19.37,-18.01,0,*7F
1504530229.17,56757,18.13,73538.5,6.41,-18.93,-18.01,0,*73
1504530230.45,56758,18.13,73544.0,6.35,-19.41,-18.35,0,*76
1504530231.7,56759,18.13,73544.8,6.31,-18.45,-17.55,0,*7F
1504530232.93,56760,18.13,73544.0,6.31,-16.37,-16.03,0,*7C
1504530234.19,56761,18.13,73540.8,6.27,-17.03,-16.97,0,*71
1504530235.4,56762,18.13,73542.3,6.25,-15.71,-16.75,0,*7B
1504530236.67,56763,18.13,73546.0,6.23,-14.19,-15.85,0,*7F
1504530237.88,56764,18.13,73546.3,6.25,-13.69,-15.15,0,*77
1504530239.09,56765,18.13,73542.8,6.25,-12.21,-13.55,0,*79
1504530240.34,56766,18.13,73544.5,6.25,-11.01,-12.71,0,*7C
1504530241.59,56767,18.13,73544.0,6.29,-10.79,-11.81,0,*73
1504530242.81,56768,18.13,73542.5,6.35,-10.89,-10.89,0,*77
1504530244.06,56769,18.13,73548.5,6.39,-10.41,-9.89,0,*46
1504530245.34,56770,18.13,73542.8,6.39,-13.01,-12.65,0,*71
1504530246.54,56771,18.13,73538.5,6.37,-13.11,-12.29,0,*77
1504530247.77,56772,18.13,73540.3,6.37,-12.53,-10.89,0,*7B
1504530249.05,56773,18.13,73540.5,6.39,-12.35,-10.67,0,*74
1504530250.28,56774,18.13,73540.3,6.37,-11.59,-10.49,0,*78
1504530251.49,56775,18.13,73540.3,6.37,-10.57,-10.15,0,*7F
1504530252.7,56776,18.13,73538.0,6.37,-9.45,-9.75,0,*79
1504530253.95,56777,18.13,73538.5,6.39,-8.11,-9.19,0,*7C
1504530255.21,56778,18.13,73540.8,6.39,-7.99,-9.83,0,*7F
1504530256.43,56779,18.13,73544.3,6.39,-6.47,-8.59,0,*7A
1504530257.63,56780,18.13,73542.3,6.41,-5.81,-8.67,0,*77
1504530258.88,56781,18.13,73540.8,6.43,-6.23,-8.89,0,*7F
1504530260.12,56782,18.13,73532.5,6.49,-6.97,-9.61,0,*7E
1504530261.34,56783,18.13,73534.8,6.49,-6.09,-8.07,0,*79
1504530262.6,56784,18.13,73536.3,6.51,-4.85,-6.23,0,*79
1504530263.87,56785,18.13,73536.3,6.51,-4.89,-5.89,0,*77
1504530265.13,56786,18.13,73538.0,6.53,-4.85,-5.93,0,*71
1504530266.35,56787,18.13,73548.0,6.59,-4.53,-5.61,0,*7C
1504530267.57,56788,18.13,73550.3,6.61,-5.47,-6.89,0,*79
1504530268.81,56789,18.13,73552.5,6.61,-7.43,-8.89,0,*70
1504530270.08,56790,18.13,73550.5,6.61,-7.27,-8.51,0,*7F
1504530271.27,56791,18.13,73548.0,6.59,-8.75,-9.27,0,*7D
1504530272.46,56792,18.13,73548.5,6.59,-8.45,-8.67,0,*78
1504530273.66,56793,18.13,73548.8,6.59,-8.55,-8.93,0,*73
1504530274.9,56794,18.13,73542.3,6.57,-7.61,-8.29,0,*73
1504530276.14,56795,18.13,73546.5,6.57,-7.43,-8.93,0,*73
1504530277.39,56796,18.13,73544.8,6.57,-9.61,-11.11,0,*4C
1504530278.63,56797,18.13,73542.8,6.53,-8.55,-9.57,0,*74
1504530279.89,56798,18.13,73546.3,6.53,-7.95,-9.15,0,*7E
1504530281.14,56799,18.13,73548.0,6.53,-10.19,-11.07,0,*77
1504530282.39,56800,18.13,73546.0,6.53,-9.41,-9.93,0,*79
1504530283.61,56801,18.13,73548.8,6.53,-10.89,-11.19,0,*7F
1504530284.86,56802,18.13,73548.3,6.53,-11.01,-11.37,0,*71
1504530286.14,56803,18.13,73550.3,6.53,-11.07,-11.51,0,*76
1504530287.36,56804,18.13,73548.3,6.51,-14.69,-14.69,0,*70
1504530288.59,56805,18.13,73550.3,6.51,-14.33,-14.15,0,*75
1504530289.79,56806,18.13,73554.0,6.49,-16.97,-16.83,0,*7E
1504530291.05,56807,18.13,73548.5,6.43,-15.63,-15.57,0,*77
1504530292.3,56808,18.13,73550.3,6.43,-19.85,-20.09,0,*71
1504530293.55,56809,18.13,73550.0,6.37,-17.97,-17.79,0,*7D
1504530294.8,56810,18.13,73552.3,6.31,-17.41,-16.45,0,*76
1504530296.06,56811,18.13,73552.5,6.27,-18.07,-16.27,0,*79
1504530297.32,56812,18.13,73550.5,6.23,-17.63,-15.95,0,*79
1504530298.57,56813,18.13,73548.0,6.19,-15.89,-14.55,0,*7A
1504530299.78,56814,18.13,73544.5,6.19,-16.59,-16.37,0,*75
1504530301.04,56815,18.13,73556.0,6.13,-17.49,-18.01,0,*75
1504530302.26,56816,18.13,73552.8,6.05,-17.83,-19.03,0,*74
1504530303.52,56817,18.13,73554.0,6.01,-16.37,-17.11,0,*72
1504530304.75,56818,18.13,73550.0,6.01,-16.89,-16.45,0,*78
1504530305.98,56819,18.13,73546.8,5.99,-16.13,-12.97,0,*73
1504530307.19,56820,18.13,73544.5,5.99,-12.43,-8.85,0,*40
1504530308.47,56821,18.13,73540.5,6.01,-10.41,-7.73,0,*45
1504530309.68,56822,18.13,73532.8,6.01,-10.01,-8.41,0,*4C
1504530310.92,56823,18.13,73536.8,6.01,-9.97,-9.57,0,*7C
1504530312.14,56824,18.13,73536.8,5.97,-10.09,-10.89,0,*73
1504530313.41,56825,18.13,73528.0,5.97,-9.01,-10.67,0,*42
1504530314.65,56826,18.13,73532.0,5.95,-8.85,-10.67,0,*4E
1504530315.86,56827,18.13,73538.0,5.95,-9.23,-10.97,0,*4D
1504530317.15,56828,18.13,73538.5,5.93,-9.15,-10.41,0,*4A
1504530318.41,56829,18.13,73540.3,5.91,-7.43,-7.61,0,*70
1504530319.63,56830,18.13,73538.5,5.91,-6.89,-7.27,0,*7D
1504530320.88,56831,18.13,73544.0,5.91,-5.89,-6.27,0,*7E
1504530322.09,56832,18.13,73544.3,5.91,-4.45,-5.19,0,*72
1504530323.33,56833,18.13,73540.8,5.95,-4.77,-5.77,0,*7E
1504530324.56,56834,18.13,73552.8,5.93,-4.21,-5.43,0,*7B
1504530325.76,56835,18.13,73554.5,5.95,-3.87,-5.43,0,*77
1504530327.01,56836,18.13,73554.0,5.93,-2.99,-4.89,0,*7B
1504530328.23,56837,18.13,73552.8,5.95,-2.71,-5.43,0,*7D
1504530329.45,56838,18.13,73554.3,5.97,-3.87,-6.85,0,*71
1504530330.7,56839,18.13,73548.8,5.97,-5.19,-8.21,0,*71
1504530331.92,56840,18.13,73544.8,5.97,-5.97,-8.71,0,*7C
1504530333.17,56841,18.13,73552.0,5.97,-6.97,-9.01,0,*78
1504530334.39,56842,18.13,73560.3,5.99,-6.31,-8.03,0,*7A
1504530335.61,56843,18.13,73558.0,5.99,-5.65,-7.49,0,*78
1504530336.83,56844,18.13,73560.0,6.03,-5.43,-7.57,0,*74
1504530338.02,56845,18.13,73562.0,6.03,-6.55,-8.29,0,*77
1504530339.27,56846,18.13,73560.3,6.05,-7.83,-9.53,0,*74
1504530340.49,56847,18.13,73556.0,6.05,-8.63,-9.71,0,*74
1504530341.74,56848,18.13,73558.0,6.05,-8.21,-9.15,0,*7F
1504530342.96,56849,18.13,73562.5,6.07,-7.19,-7.99,0,*72
1504530344.16,56850,18.13,73560.8,6.07,-6.39,-7.49,0,*74
1504530345.43,56851,18.13,73562.8,6.09,-6.19,-7.69,0,*7B
1504530346.67,56852,18.13,73566.0,6.15,-9.01,-10.67,0,*4B
1504530347.93,56853,18.13,73562.3,6.15,-11.29,-12.11,0,*7A
1504530349.22,56854,18.13,73562.3,6.09,-13.83,-13.29,0,*78
1504530350.48,56855,18.13,73560.0,6.09,-12.75,-10.89,0,*78
1504530351.74,56856,18.13,73556.8,6.09,-11.01,-9.11,0,*42
1504530353.02,56857,18.13,73554.8,6.09,-11.55,-9.41,0,*47
1504530354.27,56858,18.13,73554.5,6.09,-10.93,-8.81,0,*4E
1504530355.52,56859,18.13,73550.0,6.09,-9.23,-7.31,0,*78
1504530356.75,56860,18.13,73550.5,6.09,-8.67,-6.81,0,*79
1504530357.98,56861,18.13,73550.3,6.13,-8.63,-7.05,0,*7A
1504530359.25,56862,18.13,73550.0,6.13,-7.99,-6.93,0,*7D
1504530360.49,56863,18.13,73550.5,6.13,-7.43,-6.69,0,*7E
1504530361.72,56864,18.13,73554.8,6.09,-7.19,-7.11,0,*73
1504530362.96,56865,18.13,73554.3,6.13,-6.55,-7.01,0,*71
1504530364.2,56866,18.13,73554.8,6.13,-6.89,-7.73,0,*76
1504530365.45,56867,18.13,73556.0,6.13,-8.67,-9.37,0,*77
1504530366.68,56868,18.13,73558.0,6.13,-10.01,-10.01,0,*7C
1504530367.89,56869,18.13,73552.8,6.09,-10.09,-9.23,0,*46
1504530369.15,56870,18.13,73554.5,6.09,-10.71,-9.23,0,*41
1504530370.43,56871,18.13,73552.3,6.09,-9.11,-7.65,0,*72
1504530371.67,56872,18.13,73550.5,6.09,-8.93,-7.05,0,*7C
1504530372.9,56873,18.13,73548.8,6.05,-8.45,-6.47,0,*7D
1504530374.1,56874,18.13,73548.8,6.07,-8.41,-6.43,0,*78
1504530375.32,56875,18.13,73548.8,6.07,-8.29,-6.19,0,*78
1504530376.58,56876,18.13,73546.5,6.05,-7.65,-5.51,0,*71
1504530377.8,56877,18.13,73548.3,6.01,-10.53,-8.37,0,*4A
1504530379.03,56878,18.13,73548.8,5.99,-7.19,-5.15,0,*72
1504530380.25,56879,18.13,73550.5,5.97,-6.35,-4.37,0,*73
1504530381.5,56880,18.13,73548.3,6.01,-5.55,-3.51,0,*7B
1504530382.74,56881,18.13,73544.3,5.97,-4.53,-2.59,0,*78
1504530383.96,56882,18.13,73544.0,6.01,-3.87,-2.15,0,*71
1504530385.17,56883,18.13,73548.3,6.03,-3.79,-2.39,0,*7D
1504530386.39,56884,18.13,73550.8,6.03,-4.77,-3.75,0,*7A
1504530387.63,56885,18.13,73550.0,6.03,-5.73,-5.11,0,*7A
1504530388.85,56886,18.13,73550.0,6.03,-6.89,-6.93,0,*76
1504530390.07,56887,18.13,73550.3,6.03,-4.99,-4.93,0,*76
1504530391.29,56888,18.13,73548.3,6.01,-4.09,-4.05,0,*7D
1504530392.51,56889,18.13,73548.5,6.01,-3.39,-3.39,0,*70
1504530393.77,56890,18.13,73550.3,6.01,-4.77,-4.89,0,*79
1504530395.05,56891,18.13,73548.5,6.01,-5.19,-5.11,0,*71
1504530396.26,56892,18.13,73548.8,5.97,-4.17,-4.09,0,*79
1504530397.51,56893,18.13,73552.8,5.97,-3.75,-3.51,0,*71
1504530398.75,56894,18.13,73550.3,5.97,-2.59,-2.35,0,*7A
1504530399.98,56895,18.13,73552.0,5.99,-1.83,-1.55,0,*74
1504530401.18,56896,18.13,73550.0,5.99,-1.71,-1.55,0,*7A
1504530402.39,56897,18.13,73550.3,6.01,-1.75,-1.51,0,*79
1504530403.61,56898,18.19,73552.5,6.03,-1.59,-1.39,0,*74
1504530404.83,56899,18.13,73548.5,6.03,-1.79,-1.91,0,*75
1504530406.08,56900,18.13,73550.0,6.01,-2.11,-2.35,0,*76
1504530407.27,56901,18.13,73550.8,6.03,-0.03,-0.37,0,*44
1504530408.47,56902,18.13,73550.8,6.03,0.21,0.01,0,*42
1504530409.65,56903,18.13,73554.3,6.07,0.05,-0.19,0,*65
1504530410.85,56904,18.19,73554.8,6.05,-0.33,-0.61,0,*77
1504530412.09,56905,18.13,73554.0,6.07,-0.93,-1.09,0,*41
1504530413.28,56906,18.13,73554.8,6.07,-0.19,-0.45,0,*79
1504530414.49,56907,18.13,73552.8,6.07,0.21,-0.07,0,*68
1504530415.72,56908,18.13,73554.5,6.07,0.79,0.55,0,*70
1504530416.96,56909,18.13,73554.0,6.13,0.67,0.37,0,*7F
1504530418.2,56910,18.13,73552.0,6.13,0.47,0.13,0,*73
1504530419.39,56911,18.13,73554.0,6.13,-0.07,-0.61,0,*43
1504530420.64,56912,18.13,73552.8,6.13,-1.25,-1.99,0,*77
1504530421.88,56913,18.13,73554.5,6.13,-0.65,-1.47,0,*40
1504530423.07,56914,18.13,73556.3,6.15,-0.19,-1.25,0,*4E
1504530424.31,56915,18.13,73558.3,6.17,0.17,-0.97,0,*56
1504530425.54,56916,18.13,73558.3,6.17,0.75,-0.49,0,*52
1504530426.77,56917,18.13,73558.0,6.17,0.59,-0.73,0,*54
1504530427.97,56918,18.13,73560.0,6.19,0.63,-0.69,0,*57
1504530429.16,56919,18.19,73560.0,6.21,-0.53,-2.31,0,*4C
1504530430.35,56920,18.13,73560.3,6.21,-1.21,-3.11,0,*71
1504530431.57,56921,18.13,73560.3,6.21,-1.71,-3.59,0,*79
1504530432.76,56922,18.13,73556.5,6.21,-2.43,-4.33,0,*73
1504530433.99,56923,18.13,73562.5,6.19,-1.43,-2.95,0,*70
1504530435.21,56924,18.13,73560.8,6.19,-1.21,-2.55,0,*7F
1504530436.43,56925,18.13,73560.3,6.21,-0.97,-2.31,0,*4B
1504530437.68,56926,18.13,73560.3,6.19,-0.85,-2.03,0,*41
1504530438.87,56927,18.19,73560.3,6.21,-1.29,-2.31,0,*7D
1504530440.09,56928,18.19,73564.5,6.23,-1.55,-2.43,0,*7E
1504530441.29,56929,18.19,73562.3,6.25,-0.81,-1.75,0,*47
1504530442.51,56930,18.13,73560.8,6.27,-0.65,-1.63,0,*40
1504530443.73,56931,18.13,73560.5,6.27,-1.21,-2.27,0,*73
1504530444.95,56932,18.13,73562.5,6.29,-1.33,-2.59,0,*74
1504530446.14,56933,18.13,73564.0,6.29,-1.51,-2.95,0,*71
1504530447.35,56934,18.13,73562.3,6.29,-1.83,-3.23,0,*75
1504530448.56,56935,18.13,73564.3,6.29,-0.97,-2.35,0,*46
1504530449.77,56936,18.19,73566.8,6.29,-0.33,-1.83,0,*45
1504530450.97,56937,18.13,73564.5,6.31,0.05,-1.59,0,*52
1504530452.23,56938,18.13,73564.8,6.35,0.29,-1.39,0,*61
1504530453.44,56939,18.19,73570.5,6.37,-0.19,-1.91,0,*4E
1504530454.68,56940,18.19,73568.8,6.39,-1.29,-3.47,0,*75
1504530455.85,56941,18.13,73568.0,6.37,-0.07,-2.15,0,*71
1504530457.05,56942,18.13,73566.5,6.37,0.59,-1.55,0,*63
1504530458.32,56943,18.13,73566.3,6.43,1.17,-1.35,0,*5C
1504530459.55,56944,18.13,73564.8,6.45,0.41,-2.51,0,*6E
1504530460.75,56945,18.19,73566.0,6.47,0.05,-2.95,0,*55
1504530461.96,56946,18.19,73564.0,6.49,-0.27,-3.27,0,*4D
1504530463.17,56947,18.13,73562.0,6.51,-0.07,-2.83,0,*78
1504530464.43,56948,18.13,73560.3,6.53,-0.23,-2.75,0,*4A
1504530465.67,56949,18.19,73560.5,6.61,-0.49,-2.67,0,*45
1504530466.92,56950,18.19,73562.5,6.61,0.71,-1.13,0,*6B
1504530468.14,56951,18.19,73560.5,6.65,0.59,-0.73,0,*53
1504530469.41,56952,18.19,73560.3,6.69,-1.01,-2.11,0,*7B
1504530470.63,56953,18.19,73560.3,6.71,-1.01,-1.75,0,*72
1504530471.84,56954,18.13,73560.5,6.71,-1.63,-2.03,0,*73
1504530473.08,56955,18.19,73562.3,6.73,-2.35,-2.63,0,*76
1504530474.32,56956,18.19,73562.3,6.73,-3.59,-3.83,0,*71
1504530475.53,56957,18.19,73564.3,6.73,-4.37,-4.65,0,*70
1504530476.75,56958,18.19,73562.8,6.71,-4.99,-5.19,0,*73
1504530477.94,56959,18.19,73562.3,6.67,-4.99,-4.99,0,*7C
1504530479.16,56960,18.19,73562.3,6.67,-5.39,-5.15,0,*78
1504530480.41,56961,18.19,73560.3,6.65,-5.55,-5.27,0,*70
1504530481.66,56962,18.19,73560.8,6.63,-5.31,-4.89,0,*72
1504530482.85,56963,18.19,73562.3,6.63,-6.43,-6.09,0,*7F
1504530484.09,56964,18.19,73562.0,6.59,-6.63,-6.27,0,*7F
1504530485.33,56965,18.13,73556.5,6.57,-6.69,-6.27,0,*7A
1504530486.54,56966,18.19,73562.3,6.57,-7.49,-7.11,0,*7E
1504530487.78,56967,18.19,73562.8,6.53,-7.27,-6.55,0,*72
1504530489.05,56968,18.19,73560.8,6.57,-8.11,-7.35,0,*74
1504530490.29,56969,18.19,73564.3,6.53,-9.27,-8.03,0,*7F
1504530491.5,56970,18.13,73562.0,6.53,-10.05,-8.45,0,*4D
1504530492.77,56971,18.19,73560.5,6.51,-9.53,-7.61,0,*7C
1504530493.97,56972,18.19,73562.0,6.49,-9.01,-7.19,0,*7E
1504530495.2,56973,18.19,73556.5,6.49,-9.57,-7.95,0,*78
1504530496.45,56974,18.19,73554.3,6.47,-8.11,-6.51,0,*7B
1504530497.65,56975,18.19,73556.5,6.45,-7.31,-6.39,0,*7B
1504530498.87,56976,18.13,73552.0,6.47,-6.01,-5.51,0,*75
1504530500.14,56977,18.19,73552.5,6.47,-5.89,-5.77,0,*73
1504530501.36,56978,18.19,73552.5,6.47,-6.13,-6.31,0,*7D
1504530502.57,56979,18.19,73548.8,6.47,-6.31,-6.69,0,*71
1504530503.81,56980,18.19,73546.3,6.47,-6.31,-6.63,0,*7D
1504530505.06,56981,18.19,73546.3,6.49,-5.31,-5.61,0,*70
1504530506.3,56982,18.13,73544.5,6.49,-5.81,-6.23,0,*7D
1504530507.55,56983,18.19,73550.0,6.49,-5.07,-5.23,0,*71
1504530508.74,56984,18.19,73550.0,6.49,-4.05,-4.37,0,*71
1504530509.97,56985,18.19,73550.3,6.51,-4.21,-4.61,0,*7C